EW9372 Weather Reports


Display with metric or nautical units.
time (UTC)temp
F
wind
direction
speed
MPH
gust
MPH
rain 1hr
in
rain 24hr
in
rain mn
in
humidity
%
barometer
mb
20260507114328 57 157 0.0 3.0 0.00 0.00 0.00 88 1016.2
20260507113828 57 184 0.0 3.0 0.00 0.00 0.00 88 1016.2
20260507113336 58 164 1.0 3.0 0.00 0.00 0.00 87 1016.3
20260507113327 58 185 1.0 3.0 0.00 0.00 0.00 87 1016.3
20260507112326 58 213 0.0 3.0 0.00 0.00 0.00 87 1016.3
20260507111826 58 186 1.0 3.0 0.00 0.00 0.00 86 1016.4
20260507111329 58 185 0.0 2.0 0.00 0.00 0.00 85 1016.4
20260507111326 58 180 0.0 2.0 0.00 0.00 0.00 86 1016.3
20260507110318 58 197 0.0 2.0 0.00 0.00 0.00 85 1016.3
20260507105815 58 202 0.0 0.0 0.00 0.00 0.00 85 1016.2
20260507105328 58 190 0.0 0.0 0.00 0.00 0.00 84 1016.0
20260507102846 58 162 1.0 3.0 0.00 0.00 0.00 84 1016.2
20260507102345 58 157 1.0 3.0 0.00 0.00 0.00 84 1016.2
20260507101845 58 180 1.0 2.0 0.00 0.00 0.00 84 1016.2
20260507101339 58 196 1.0 0.0 0.00 0.00 0.00 84 1016.2
20260507100229 58 206 1.0 3.0 0.00 0.00 0.00 84 1016.1
20260507095713 58 185 0.0 3.0 0.00 0.00 0.00 84 1016.2
20260507095215 58 205 0.0 3.0 0.00 0.00 0.00 84 1016.2
20260507095210 58 165 1.0 3.0 0.00 0.00 0.00 85 1016.2
20260507094153 58 207 1.0 3.0 0.00 0.00 0.00 85 1016.3
20260507094149 58 185 1.0 3.0 0.00 0.00 0.00 85 1016.2
20260507093149 59 205 0.0 3.0 0.00 0.00 0.00 86 1016.3
20260507092638 59 205 0.0 3.0 0.00 0.00 0.00 86 1016.2
20260507092138 59 200 0.0 2.0 0.00 0.00 0.00 86 1016.3
20260507092127 60 197 0.0 2.0 0.00 0.00 0.00 86 1016.3
20260507091110 60 185 0.0 0.0 0.00 0.00 0.00 86 1016.3
20260507091106 60 188 0.0 2.0 0.00 0.00 0.00 86 1016.3
20260507085054 60 171 0.0 0.0 0.00 0.00 0.00 86 1016.4
20260507085040 60 171 0.0 0.0 0.00 0.00 0.00 86 1016.5
20260507084017 60 186 0.0 0.0 0.00 0.00 0.00 86 1016.5
20260507083514 60 186 0.0 0.0 0.00 0.00 0.00 86 1016.5
20260507082955 60 186 0.0 0.0 0.00 0.00 0.00 86 1016.6
20260507082456 60 188 0.0 0.0 0.00 0.00 0.00 85 1016.6
20260507081955 60 188 0.0 0.0 0.00 0.00 0.00 85 1016.6
20260507081446 60 181 0.0 1.0 0.00 0.00 0.00 85 1016.6
20260507080932 61 182 0.0 1.0 0.00 0.00 0.00 85 1016.6
20260507080419 61 177 0.0 1.0 0.00 0.00 0.00 85 1016.5
20260507075857 61 173 0.0 1.0 0.00 0.00 0.00 85 1016.6
20260507075334 61 165 0.0 1.0 0.00 0.00 0.00 84 1016.6
20260507074820 61 156 0.0 0.0 0.00 0.00 0.00 84 1016.6
20260507074317 61 155 0.0 0.0 0.00 0.00 0.00 84 1016.6
20260507073147 62 160 0.0 0.0 0.00 0.00 0.00 83 1016.5
20260507073130 62 146 0.0 0.0 0.00 0.00 0.00 83 1016.7
20260507072840 62 161 0.0 0.0 0.00 0.00 0.00 83 1016.6
20260507070540 62 178 0.0 2.0 0.00 0.00 0.00 81 1016.7
20260507070027 62 179 0.0 2.0 0.00 0.00 0.00 81 1016.6
20260507065522 62 177 0.0 1.0 0.00 0.00 0.00 81 1016.6
20260507065011 62 181 0.0 1.0 0.00 0.00 0.00 82 1016.5
20260507064500 63 170 0.0 1.0 0.00 0.00 0.00 81 1016.5
20260507063956 63 173 0.0 1.0 0.00 0.00 0.00 81 1016.6
20260507063456 63 171 0.0 0.0 0.00 0.00 0.00 81 1016.5
20260507062921 63 178 0.0 0.0 0.00 0.00 0.00 80 1016.6
20260507062408 63 180 0.0 0.0 0.00 0.00 0.00 80 1016.6
20260507061909 63 185 0.0 0.0 0.00 0.00 0.00 80 1016.6
20260507060442 64 190 0.0 0.0 0.00 0.00 0.00 79 1016.6
20260507055916 64 185 0.0 0.0 0.00 0.00 0.00 79 1016.6
20260507055547 64 237 0.0 0.0 0.00 0.00 0.00 78 1016.6
20260507055413 64 185 0.0 0.0 0.00 0.00 0.00 79 1016.6
20260507054856 64 236 0.0 0.0 0.00 0.00 0.00 78 1016.6
20260507054820 64 236 0.0 0.0 0.00 0.00 0.00 78 1016.6
20260507053319 65 236 0.0 0.0 0.00 0.00 0.00 77 1016.5
20260507052822 65 236 0.0 1.0 0.00 0.00 0.00 77 1016.6
20260507052750 65 236 0.0 3.0 0.00 0.00 0.00 77 1016.5
20260507052505 65 237 1.0 4.0 0.00 0.00 0.00 76 1016.4
20260507051249 65 226 0.0 3.0 0.00 0.00 0.00 75 1016.4
20260507051245 65 235 0.0 4.0 0.00 0.00 0.00 76 1016.4
20260507050241 66 227 1.0 5.0 0.00 0.00 0.00 75 1016.5
20260507045745 66 186 1.0 5.0 0.00 0.00 0.00 74 1016.5
20260507045728 66 156 0.0 0.0 0.00 0.00 0.00 74 1016.4
20260507044725 67 157 0.0 0.0 0.00 0.00 0.00 74 1016.3
20260507044224 67 166 0.0 0.0 0.00 0.00 0.00 72 1016.3
20260507044220 67 165 0.0 0.0 0.00 0.00 0.00 74 1016.3
20260507043942 67 153 0.0 0.0 0.00 0.00 0.00 71 1016.3
20260507042716 67 154 0.0 0.0 0.00 0.00 0.00 70 1016.2
20260507042158 67 154 0.0 0.0 0.00 0.00 0.00 69 1016.2
20260507041619 68 155 0.0 0.0 0.00 0.00 0.00 69 1016.2
20260507041100 68 150 0.0 0.0 0.00 0.00 0.00 68 1016.2
20260507040230 68 151 0.0 0.0 0.00 0.00 0.00 68 1016.2
20260507035220 68 132 0.0 0.0 0.00 0.00 0.00 68 1016.1
20260507034709 68 126 0.0 0.0 0.00 0.00 0.00 68 1016.1
20260507034657 69 134 0.0 0.0 0.00 0.00 0.00 68 1016.1
20260507033656 69 131 0.0 0.0 0.00 0.00 0.00 68 1016.1
20260507033139 69 117 0.0 0.0 0.00 0.00 0.00 68 1016.0
20260507033134 69 56 0.0 0.0 0.00 0.00 0.00 67 1015.9
20260507032850 69 72 0.0 0.0 0.00 0.00 0.00 68 1016.0
20260507031620 69 56 0.0 0.0 0.00 0.00 0.00 66 1015.9
20260507031120 70 56 0.0 0.0 0.00 0.00 0.00 66 1015.9
20260507030605 70 56 0.0 0.0 0.00 0.00 0.00 66 1015.9
20260507030050 70 56 0.0 0.0 0.00 0.00 0.00 65 1015.8
20260507025549 70 56 0.0 0.0 0.00 0.00 0.00 64 1015.7
20260507023859 71 56 0.0 0.0 0.00 0.00 0.00 62 1015.8
20260507023359 71 56 0.0 0.0 0.00 0.00 0.00 63 1015.8
20260507022845 71 55 0.0 0.0 0.00 0.00 0.00 62 1015.8
20260507022343 72 56 0.0 0.0 0.00 0.00 0.00 61 1015.7
20260507020919 73 55 0.0 2.0 0.00 0.00 0.00 60 1015.8
20260507020421 73 56 0.0 2.0 0.00 0.00 0.00 59 1015.8
20260507015920 73 56 0.0 3.0 0.00 0.00 0.00 59 1015.9
20260507015413 73 56 0.0 3.0 0.00 0.00 0.00 59 1015.9
20260507014904 73 28 0.0 1.0 0.00 0.00 0.00 59 1015.7
20260507014859 73 26 0.0 2.0 0.00 0.00 0.00 58 1015.8
20260507013844 73 26 0.0 2.0 0.00 0.00 0.00 58 1015.9
20260507013342 73 26 1.0 3.0 0.00 0.00 0.00 58 1015.9
20260507012834 73 27 0.0 3.0 0.00 0.00 0.00 58 1015.9
20260507012321 73 69 0.0 0.0 0.00 0.00 0.00 59 1016.0
20260507011807 73 69 0.0 1.0 0.00 0.00 0.00 58 1015.9
20260507011802 73 69 0.0 1.0 0.00 0.00 0.00 57 1015.9
20260507010804 73 69 0.0 1.0 0.00 0.00 0.00 58 1016.0
20260507010257 73 69 1.0 1.0 0.00 0.00 0.00 59 1016.0
20260507004753 73 74 0.0 0.0 0.00 0.00 0.00 58 1016.0
20260507003505 74 76 2.0 5.0 0.00 0.00 0.00 58 1016.1
20260507003007 74 61 2.0 2.0 0.00 0.00 0.00 58 1016.2
20260507002128 75 57 2.0 7.0 0.00 0.00 0.00 57 1016.4
20260507001112 75 74 1.0 5.0 0.00 0.00 0.00 57 1016.3
20260507000615 74 36 0.0 5.0 0.00 0.00 0.00 58 1016.3
20260507000114 74 97 1.0 5.0 0.00 0.00 0.00 56 1016.4
20260506235612 75 46 2.0 5.0 0.00 0.00 0.00 56 1016.4
20260506235108 75 30 1.0 5.0 0.00 0.00 0.00 56 1016.4
20260506234604 74 42 1.0 5.0 0.00 0.00 0.00 57 1016.4
20260506234550 74 163 1.0 5.0 0.00 0.00 0.00 56 1016.3
20260506233530 74 67 1.0 6.0 0.00 0.00 0.00 56 1016.3
20260506233026 74 43 2.0 6.0 0.00 0.00 0.00 57 1016.3
20260506232513 74 13 1.0 6.0 0.00 0.00 0.00 58 1016.3
20260506232010 73 115 2.0 7.0 0.00 0.00 0.00 57 1016.4
20260506231510 73 18 3.0 9.0 0.00 0.00 0.00 58 1016.6
20260506231001 73 70 3.0 9.0 0.00 0.00 0.00 57 1016.6
20260506230505 74 54 2.0 6.0 0.00 0.00 0.00 56 1016.7
20260506225953 74 51 2.0 6.0 0.00 0.00 0.00 57 1016.7
20260506225456 74 5 2.0 5.0 0.00 0.00 0.00 57 1016.8
20260506224948 73 28 2.0 5.0 0.00 0.00 0.00 58 1016.9
20260506224450 72 24 2.0 7.0 0.00 0.00 0.00 58 1016.9
20260506223950 72 76 3.0 7.0 0.00 0.00 0.00 58 1017.0
20260506223449 74 58 3.0 4.0 0.00 0.00 0.00 57 1017.1
20260506222321 73 67 2.0 7.0 0.00 0.00 0.00 57 1017.3
20260506221820 73 284 2.0 7.0 0.00 0.00 0.00 59 1017.4
20260506221329 71 49 1.0 6.0 0.00 0.00 0.00 61 1017.3
20260506220830 71 150 2.0 9.0 0.00 0.00 0.00 60 1017.3
20260506220824 72 70 2.0 9.0 0.00 0.00 0.00 58 1017.6
20260506215803 72 64 1.0 4.0 0.00 0.00 0.00 61 1017.6
20260506215310 71 55 2.0 0.0 0.00 0.00 0.00 60 1017.6
20260506214127 71 49 4.0 7.0 0.00 0.00 0.00 61 1017.9
20260506213627 71 40 4.0 10.0 0.00 0.00 0.00 61 1017.9
20260506213127 70 29 3.0 10.0 0.00 0.00 0.00 61 1017.9
20260506212626 70 69 3.0 8.0 0.00 0.00 0.00 62 1017.9
20260506212126 70 50 3.0 10.0 0.00 0.00 0.00 64 1017.9
20260506211623 70 31 3.0 10.0 0.00 0.00 0.00 64 1017.9
20260506211123 70 32 3.0 10.0 0.00 0.00 0.00 64 1018.0
20260506210623 70 53 3.0 10.0 0.00 0.00 0.00 62 1018.1
20260506210129 69 80 2.0 7.0 0.00 0.00 0.00 63 1018.2
20260506210125 69 67 2.0 7.0 0.00 0.00 0.00 63 1018.2
20260506205120 69 61 4.0 9.0 0.00 0.00 0.00 63 1018.2
20260506204621 69 24 1.0 7.0 0.00 0.00 0.00 63 1018.3
20260506204616 69 41 3.0 9.0 0.00 0.00 0.00 62 1018.4
20260506204352 69 76 1.0 3.0 0.00 0.00 0.00 61 1018.4
20260506203116 69 25 1.0 1.0 0.00 0.00 0.00 61 1018.4
20260506202157 69 73 2.0 5.0 0.00 0.00 0.00 62 1018.6
20260506201157 69 39 2.0 5.0 0.00 0.00 0.00 62 1018.6
20260506200700 69 38 2.0 6.0 0.00 0.00 0.00 63 1018.6
20260506200144 69 53 2.0 6.0 0.00 0.00 0.00 62 1018.6
20260506195643 69 27 2.0 6.0 0.00 0.00 0.00 62 1018.6
20260506195144 69 49 0.0 3.0 0.00 0.00 0.00 62 1018.5
20260506194636 68 326 1.0 4.0 0.00 0.00 0.00 63 1018.7
20260506194120 69 0 2.0 4.0 0.00 0.00 0.00 62 1018.8
20260506193616 68 247 2.0 5.0 0.00 0.00 0.00 63 1018.9
20260506193111 69 0 1.0 5.0 0.00 0.00 0.00 63 1019.1
20260506192613 69 52 1.0 4.0 0.00 0.00 0.00 62 1018.9
20260506192608 69 244 1.0 4.0 0.00 0.00 0.00 64 1019.2
20260506191605 68 30 2.0 5.0 0.00 0.00 0.00 64 1019.2
20260506191102 68 48 2.0 7.0 0.00 0.00 0.00 63 1019.3
20260506190553 69 57 2.0 7.0 0.00 0.00 0.00 64 1019.3
20260506190052 68 38 2.0 1.0 0.00 0.00 0.00 64 1019.4
20260506184834 68 48 1.0 5.0 0.00 0.00 0.00 65 1019.3
20260506184333 67 64 2.0 6.0 0.00 0.00 0.00 66 1019.4
20260506183830 68 46 2.0 6.0 0.00 0.00 0.00 66 1019.4
20260506183322 68 27 2.0 5.0 0.00 0.00 0.00 66 1019.5
20260506182831 66 36 1.0 3.0 0.00 0.00 0.00 68 1019.4
20260506182823 67 17 1.0 3.0 0.00 0.00 0.00 68 1019.4
20260506182326 66 40 0.0 3.0 0.00 0.00 0.00 69 1019.3
20260506181316 66 319 0.0 2.0 0.00 0.00 0.00 68 1019.4
20260506181310 66 43 1.0 3.0 0.00 0.00 0.00 69 1019.4
20260506180308 65 17 1.0 3.0 0.00 0.00 0.00 69 1019.4
20260506175808 65 17 1.0 5.0 0.00 0.00 0.00 69 1019.4
20260506175306 65 235 1.0 5.0 0.00 0.00 0.00 69 1019.4
20260506174808 65 31 0.0 0.0 0.00 0.00 0.00 71 1019.3
20260506174304 64 32 0.0 0.0 0.00 0.00 0.00 71 1019.2
20260506173805 64 224 0.0 0.0 0.00 0.00 0.00 71 1019.3
20260506173800 64 221 0.0 0.0 0.00 0.00 0.00 71 1019.4
20260506173252 64 221 0.0 0.0 0.00 0.00 0.00 71 1019.2
20260506172246 63 219 0.0 0.0 0.00 0.00 0.00 73 1019.3
20260506171746 63 219 0.0 0.0 0.00 0.00 0.00 73 1019.3
20260506170441 62 214 0.0 0.0 0.00 0.00 0.00 74 1019.3
20260506170424 62 231 0.0 0.0 0.00 0.00 0.00 76 1019.4
20260506165423 62 229 0.0 0.0 0.00 0.00 0.00 75 1019.1
20260506164923 61 229 0.0 0.0 0.00 0.00 0.00 75 1019.2
20260506164423 61 230 0.0 0.0 0.00 0.00 0.00 75 1019.1
20260506164417 61 231 0.0 0.0 0.00 0.00 0.00 76 1019.1
20260506163412 61 231 0.0 0.0 0.00 0.00 0.00 77 1019.2
20260506162825 61 231 0.0 0.0 0.00 0.00 0.00 77 1019.1
20260506162302 60 242 0.0 0.0 0.00 0.00 0.00 77 1019.1
20260506161752 60 232 0.0 0.0 0.00 0.00 0.00 77 1019.1
20260506161728 60 232 0.0 0.0 0.00 0.00 0.00 78 1019.1
20260506160725 60 231 0.0 0.0 0.00 0.00 0.00 78 1019.1
20260506160224 60 231 0.0 0.0 0.00 0.00 0.00 79 1019.1
20260506155724 60 230 0.0 0.0 0.00 0.00 0.00 79 1018.9
20260506155212 60 229 0.0 0.0 0.00 0.00 0.00 79 1018.9
20260506154706 59 229 0.0 0.0 0.00 0.00 0.00 80 1018.9
20260506154646 59 207 0.0 0.0 0.00 0.00 0.00 80 1018.9
20260506154352 59 227 0.0 0.0 0.00 0.00 0.00 80 1018.9
20260506153852 59 219 0.0 0.0 0.00 0.00 0.00 80 1018.9
20260506152640 59 205 0.0 0.0 0.00 0.00 0.00 81 1018.8
20260506152630 59 207 0.0 0.0 0.00 0.00 0.00 81 1018.7
20260506152125 59 206 0.0 0.0 0.00 0.00 0.00 81 1018.8
20260506151124 58 206 0.0 0.0 0.00 0.00 0.00 81 1018.7
20260506151116 58 186 0.0 0.0 0.00 0.00 0.00 82 1018.7
20260506150824 58 205 0.0 0.0 0.00 0.00 0.00 82 1018.7
20260506150323 58 186 0.0 0.0 0.00 0.00 0.00 82 1018.7
20260506145825 58 198 0.0 0.0 0.00 0.00 0.00 82 1018.7
20260506145112 58 198 0.0 0.0 0.00 0.00 0.00 82 1018.7
20260506144106 58 197 0.0 0.0 0.00 0.00 0.00 83 1018.8
20260506143536 57 196 0.0 0.0 0.00 0.00 0.00 83 1018.7
20260506143029 57 196 0.0 0.0 0.00 0.00 0.00 83 1018.7
20260506142520 57 197 0.0 0.0 0.00 0.00 0.00 83 1018.7
20260506142017 57 196 0.0 0.0 0.00 0.00 0.00 83 1018.6
20260506141504 57 195 0.0 0.0 0.00 0.00 0.00 83 1018.5
20260506140952 57 190 0.0 0.0 0.00 0.00 0.00 84 1018.5
20260506140448 57 185 0.0 0.0 0.00 0.00 0.00 84 1018.5
20260506135943 57 196 0.0 0.0 0.00 0.00 0.00 84 1018.5
20260506135933 57 204 0.0 0.0 0.00 0.00 0.00 84 1018.4
20260506134916 57 190 0.0 0.0 0.00 0.00 0.00 84 1018.4
20260506134412 57 194 0.0 0.0 0.00 0.00 0.00 84 1018.3
20260506133904 57 202 0.0 0.0 0.00 0.00 0.00 84 1018.2
20260506133340 57 178 0.0 0.0 0.00 0.00 0.00 84 1018.2
20260506133307 57 198 0.0 0.0 0.00 0.00 0.00 84 1018.2
20260506132253 57 195 0.0 0.0 0.00 0.00 0.00 84 1018.1
20260506131751 57 198 0.0 0.0 0.00 0.00 0.00 83 1018.1
20260506131233 57 187 0.0 0.0 0.00 0.00 0.00 83 1018.1
20260506125620 57 208 0.0 0.0 0.00 0.00 0.00 83 1018.2
20260506125108 57 207 0.0 0.0 0.00 0.00 0.00 83 1018.0
20260506124601 57 192 0.0 0.0 0.00 0.00 0.00 83 1018.0
20260506124043 57 195 0.0 0.0 0.00 0.00 0.00 83 1017.9
20260506123537 57 197 0.0 0.0 0.00 0.00 0.00 83 1017.9
20260506123038 57 200 0.0 0.0 0.00 0.00 0.00 83 1017.9
20260506121419 57 200 0.0 0.0 0.00 0.00 0.00 82 1017.9
20260506120908 57 195 0.0 0.0 0.00 0.00 0.00 82 1017.7
20260506120406 57 200 0.0 0.0 0.00 0.00 0.00 82 1017.7
20260506115845 57 184 0.0 0.0 0.00 0.00 0.00 82 1017.7
20260506115017 57 196 0.0 0.0 0.00 0.00 0.00 82 1017.7